ATLAS 5 CENTAUR DEB, 44673

Orbit data source: Space-Track

ATLAS 5 CENTAUR DEB, 44673 is space debris in HEO originally from a launch on Wed, 17 Oct 2018 UTC launched from the Air Force Eastern Test Range (AFETR). Debris objects in space refer to the collection of defunct objects orbiting the Earth. Examples of debris include non-operational satellites, rocket bodies, and fragments generated from explosions, collisions, or faulty payload assembly.

Loading next visibility...
Identifier
44673, 2018-079AK
Orbit
HEO
Country
Flag of USUS
Related business
Flag of USUnited Launch Alliance/Lockheed Martin (US)
Manufacturer
ULA Decatur
Mission
Spacecraft
Bus & Motor
Unknown
Mass
Unknown
Launch date (UTC)
2018-10-17 (7 years ago)
Launch vehicle
Unknown
Launch site
Air Force Eastern Test Range (AFETR)
Object type
Payload
Rocket body
Debris
Shape & HBR
Unknown shape, 1.1 m
Radar Cross Section
RCS unknown

Expand to show TLE details & history
Last TLE update: 2 days ago

TLE from 2 days ago
0 ATLAS 5 CENTAUR DEB
1 44673U 18079AK  25296.42312779 -.00000073  00000-0  00000-0 0  9999
2 44673  13.1053  62.6829 4705894 257.5019  47.8234  1.77547347 45662
Epoch: 2025-10-23T10:09Z
TLE epoch observation values (Epoch: 2025-10-23T10:09:18.241Z)
Latitude
-0°
Longitude
-121.81317°
Altitude
18,580.576 km
Speed
4.255 km/s
True Right ascension
04h 10m 22s
True Declination
0° 00' 00"
Sunlit
Object was in daylight at epoch
Visualization orbit readout
Latitude
Unknown
Longitude
Unknown
Altitude
Unknown
Speed
Unknown
Apparent Right ascension
Unknown
Apparent Declination
Unknown
Sunlit
N/A
Visualization observer readout
Local Sidereal Time
06:55:35
Azimuth
Unknown
Elevation
Unknown
Doppler factor
Unknown
Orbital elements
Apogee altitude
35,990.879 km
Perigee altitude
8,874.663 km
Semi-major axis
28,810.908 km
Eccentricity
0.47059
Inclination
13.1053°
RAAN
62.6829°
Arg. of periapsis
257.5019°
True anomaly
102.64286°
Mean anomaly
47.8234°
Eccentric anomaly
73.70279°
Mean motion
0.44382 °/min
Orbital period
811.14 mins
BSTAR
0
Loading maneuver chart data...
Computing Atmospheric mass density...

Documentation

Showing up to 5 results
|